Satellite: NOAA-15 Catalog number: 25338 Epoch time: 06333.77848918 Element set: 0771 Inclination: 098.5246 deg RA of node: 331.1860 deg Eccentricity: 0.0009821 Arg of perigee: 250.1600 deg Mean anomaly: 109.8504 deg Mean motion: 14.24612789 rev/day Decay rate: -8.3e-07 rev/day^2 Epoch rev: 44429 Checksum: 316
Satellite: RESURS Catalog number: 25394 Epoch time: 06333.74489885 Element set: 514 Inclination: 098.4717 deg RA of node: 030.8674 deg Eccentricity: 0.0002333 Arg of perigee: 059.9535 deg Mean anomaly: 300.1875 deg Mean motion: 14.24119280 rev/day Decay rate: 1.6e-07 rev/day^2 Epoch rev: 43596 Checksum: 312
Satellite: FENGYUN1 Catalog number: 25730 Epoch time: 06334.73842486 Element set: 892 Inclination: 098.6435 deg RA of node: 321.1041 deg Eccentricity: 0.0014780 Arg of perigee: 029.5435 deg Mean anomaly: 330.6600 deg Mean motion: 14.11819691 rev/day Decay rate: 3.14e-06 rev/day^2 Epoch rev: 38951 Checksum: 292
Satellite: OKEAN-0 Catalog number: 25860 Epoch time: 06333.57689323 Element set: 0916 Inclination: 097.7307 deg RA of node: 340.1872 deg Eccentricity: 0.0000903 Arg of perigee: 038.8241 deg Mean anomaly: 321.3031 deg Mean motion: 14.73408517 rev/day Decay rate: 9.5e-07 rev/day^2 Epoch rev: 39610 Checksum: 288
Satellite: NOAA-16 Catalog number: 26536 Epoch time: 06333.77483824 Element set: 0164 Inclination: 099.0922 deg RA of node: 302.5291 deg Eccentricity: 0.0010967 Arg of perigee: 017.9963 deg Mean anomaly: 342.1591 deg Mean motion: 14.12385376 rev/day Decay rate: 3.9e-07 rev/day^2 Epoch rev: 31895 Checksum: 323
Satellite: NOAA-17 Catalog number: 27453 Epoch time: 06333.59626761 Element set: 0183 Inclination: 098.6055 deg RA of node: 042.4572 deg Eccentricity: 0.0011155 Arg of perigee: 317.3348 deg Mean anomaly: 042.7000 deg Mean motion: 14.23831557 rev/day Decay rate: 1.58e-06 rev/day^2 Epoch rev: 23031 Checksum: 282
Satellite: NOAA-18 Catalog number: 28654 Epoch time: 06333.57349956 Element set: 0740 Inclination: 098.8077 deg RA of node: 273.4379 deg Eccentricity: 0.0015065 Arg of perigee: 111.6292 deg Mean anomaly: 248.6489 deg Mean motion: 14.11012726 rev/day Decay rate: -6.2e-07 rev/day^2 Epoch rev: 07870 Checksum: 329
/EX SB KEPS @ AMSAT $ORB06334.M Orbital Elements 06334.MISC
HR AMSAT ORBITAL ELEMENTS FOR MANNED AND MISCELLANEOUS SATELLITES FROM WA5QGD FORT WORTH,TX November 30, 2006 Send SUBSCRIBE KEPS/UNSUBSCRIBE KEPS to [email protected] only BID: ORB06334.M TO ALL RADIO AMATEURS BT
Satellite: HUBBLE Catalog number: 20580 Epoch time: 06333.62695102 Element set: 750 Inclination: 028.4668 deg RA of node: 051.3316 deg Eccentricity: 0.0003857 Arg of perigee: 142.2850 deg Mean anomaly: 217.8012 deg Mean motion: 15.00141005 rev/day Decay rate: 5.11e-06 rev/day^2 Epoch rev: 70996 Checksum: 256
Satellite: UARS Catalog number: 21701 Epoch time: 06334.84187347 Element set: 932 Inclination: 056.9746 deg RA of node: 093.1838 deg Eccentricity: 0.0100783 Arg of perigee: 166.4744 deg Mean anomaly: 193.9050 deg Mean motion: 15.45723746 rev/day Decay rate: 1.0272e-04 rev/day^2 Epoch rev: 83505 Checksum: 314
Satellite: PO-34 Catalog number: 25520 Epoch time: 06334.75018873 Element set: 622 Inclination: 028.4613 deg RA of node: 356.7311 deg Eccentricity: 0.0005185 Arg of perigee: 248.7774 deg Mean anomaly: 111.2246 deg Mean motion: 15.16857869 rev/day Decay rate: 6.23e-06 rev/day^2 Epoch rev: 44736 Checksum: 312
Satellite: ISS Catalog number: 25544 Epoch time: 06334.82320800 Element set: 166 Inclination: 051.6351 deg RA of node: 048.3912 deg Eccentricity: 0.0012087 Arg of perigee: 282.3896 deg Mean anomaly: 183.2361 deg Mean motion: 15.78437153 rev/day Decay rate: 3.3061e-04 rev/day^2 Epoch rev: 45945 Checksum: 291
Satellite: OO-38 Catalog number: 26063 Epoch time: 06334.84430512 Element set: 779 Inclination: 100.2076 deg RA of node: 296.0120 deg Eccentricity: 0.0036972 Arg of perigee: 358.5622 deg Mean anomaly: 001.5448 deg Mean motion: 14.35786912 rev/day Decay rate: 1.4e-07 rev/day^2 Epoch rev: 35858 Checksum: 301
Satellite: NO-45 Catalog number: 26932 Epoch time: 06334.87855033 Element set: 468 Inclination: 067.0523 deg RA of node: 298.0462 deg Eccentricity: 0.0003966 Arg of perigee: 242.1564 deg Mean anomaly: 117.9137 deg Mean motion: 14.29542081 rev/day Decay rate: -1.1e-07 rev/day^2 Epoch rev: 26979 Checksum: 318
Satellite: UWE-1 Catalog number: 28892 Epoch time: 06333.70620747 Element set: 615 Inclination: 098.1480 deg RA of node: 229.0782 deg Eccentricity: 0.0018129 Arg of perigee: 017.8252 deg Mean anomaly: 342.3598 deg Mean motion: 14.59429956 rev/day Decay rate: 2.36e-06 rev/day^2 Epoch rev: 5811 Checksum: 320
Satellite: CO-58 Catalog number: 28895 Epoch time: 06333.69159728 Element set: 597 Inclination: 098.1486 deg RA of node: 229.2014 deg Eccentricity: 0.0018559 Arg of perigee: 017.9691 deg Mean anomaly: 342.2167 deg Mean motion: 14.59479780 rev/day Decay rate: 2.49e-06 rev/day^2 Epoch rev: 5799 Checksum: 379
Satellite: NCUBE2 Catalog number: 28897 Epoch time: 06334.67944179 Element set: 151 Inclination: 098.1479 deg RA of node: 230.1447 deg Eccentricity: 0.0017923 Arg of perigee: 016.6302 deg Mean anomaly: 343.5494 deg Mean motion: 14.59637823 rev/day Decay rate: 2.36e-06 rev/day^2 Epoch rev: 5041 Checksum: 315
/EX
participants (1)
-
Ray Hoad